YUBILEINY (RS-30)

Last updated on Mon Sep 15 2025 00:03:09 GMT+0000 (Coordinated Universal Time)

1 32953U 08025A 25257.21818385 .00000021 00000+0 80670-4 0 9991 2 32953 82.5072 167.0946 0018491 191.8268 168.2380 12.43168113785401
UTC large
Height (km)
Speed (km/s)
/
Latitude / Longitude
Inclination (degrees)
Orbital Period (minutes)
Azimuth
Elevation
Range (km)
Doppler Factor

Next 0 passes for location: London (51.5072 / 0.1276)

Sorry there are no passes over London.